This is the latest recevied weather packets stored in our database for station/object W0VI. If no packets are shown the sender has not sent any weather packets the latest 10 day(s).
| Time | Temp. | Humidity | Pressure | Rain* | Wind** | Luminosity | Snow |
|---|---|---|---|---|---|---|---|
| 1787968670 | 22.78° C | 75% | 1016.6 hPa | 0 mm | - | 0 W/m² | - |
| 1787968364 | 22.78° C | 74% | 1016.3 hPa | 0 mm | - | 0 W/m² | - |
| 1787968055 | 22.78° C | 74% | 1016.5 hPa | 0 mm | - | 0 W/m² | - |
| 1787967753 | 22.78° C | 73% | 1016.3 hPa | 0 mm | - | 0 W/m² | - |
| 1787967451 | 22.78° C | 73% | 1016.2 hPa | 0 mm | - | 0 W/m² | - |
| 1787967146 | 22.78° C | 73% | 1016.3 hPa | 0 mm | - | 0 W/m² | - |
| 1787966843 | 22.78° C | 73% | 1016.5 hPa | 0 mm | - | 0 W/m² | - |
| 1787966539 | 22.78° C | 73% | 1016.6 hPa | 0 mm | - | 0 W/m² | - |
| 1787966237 | 22.78° C | 72% | 1016.6 hPa | 0 mm | - | 0 W/m² | - |
| 1787965932 | 23.33° C | 72% | 1016.6 hPa | 0 mm | - | 0 W/m² | - |
| 1787965627 | 23.33° C | 71% | 1016.5 hPa | 0 mm | - | 0 W/m² | - |
| 1787965327 | 23.33° C | 72% | 1016.5 hPa | 0 mm | - | 0 W/m² | - |
| 1787965026 | 23.33° C | 72% | 1016.3 hPa | 0 mm | - | 2 W/m² | - |
| 1787964726 | 23.33° C | 71% | 1016.5 hPa | 0 mm | - | 3 W/m² | - |
| 1787964420 | 23.89° C | 70% | 1016.7 hPa | 0 mm | - | 6 W/m² | - |
| 1787964116 | 23.89° C | 69% | 1016.9 hPa | 0 mm | - | 8 W/m² | - |
| 1787963809 | 23.89° C | 69% | 1016.7 hPa | 0 mm | - | 13 W/m² | - |
| 1787963504 | 24.44° C | 69% | 1016.8 hPa | 0 mm | - | 16 W/m² | - |
| 1787963200 | 24.44° C | 68% | 1016.7 hPa | 0 mm | - | 20 W/m² | - |
| 1787962899 | 24.44° C | 67% | 1016.6 hPa | 0 mm | - | 23 W/m² | - |
| 1787962598 | 24.44° C | 68% | 1016.9 hPa | 0 mm | - | 26 W/m² | - |
| 1787962298 | 24.44° C | 67% | 1016.8 hPa | 0 mm | - | 34 W/m² | - |
| 1787961993 | 24.44° C | 66% | 1016.8 hPa | 0 mm | - | 42 W/m² | - |
| 1787961687 | 25° C | 66% | 1016.6 hPa | 0 mm | - | 48 W/m² | - |
| 1787961381 | 25° C | 66% | 1017 hPa | 0 mm | - | 53 W/m² | - |
* Rain latest hour (hover to see other rain measurements)
** Current wind speed in m/s (hover to see current wind gust speed)